Weather History for KIDA - August, 2013

Change the Weather History Date:

Thursday, August 22, 2013

  Actual Average Record
Temperature  
Mean Temperature 71 °F 66 °F  
Max Temperature 90 °F 84 °F 98 °F (1969)
Min Temperature 52 °F 48 °F 36 °F (1954)
Degree Days  
Heating Degree Days 0 2  
Month to date heating degree days 0 15  
Since 1 June heating degree days 100 195  
Since 1 July heating degree days 0 42  
Cooling Degree Days 6 2  
Month to date cooling degree days 122 78  
Year to date cooling degree days 413 233  
Since 1 June cooling degree days 409 231  
Growing Degree Days 21 (Base 50)    
Moisture  
Dew Point 49 °F    
Average Humidity 53    
Maximum Humidity 83    
Minimum Humidity 22    
Precipitation  
Precipitation 0.02 in 0.02 in 0.53 in (1960)
Month to date precipitation 0.03 0.35  
Year to date precipitation 2.46 6.79  
Sea Level Pressure  
Sea Level Pressure 29.99 in    
Wind  
Wind Speed 6 mph (SW)    
Max Wind Speed 24 mph    
Max Gust Speed 33 mph    
Visibility 10 miles    
Events Rain , Thunderstorm    
T = Trace of Precipitation, MM = Missing Value Source: NWS Daily Summary

Daily Weather History Graph

Daily Weather History Graph

Search for Another Location

Airport or City:

Trip Planner

Search our weather history database for the weather conditions in past years. The results will help you decide how hot, cold, wet, or windy it might be!

Date:

Astronomy

Aug. 22, 2013 Rise Set
Actual Time 6:41 AM MDT 8:19 PM MDT
Civil Twilight 6:11 AM MDT 8:50 PM MDT
Nautical Twilight 5:34 AM MDT 9:26 PM MDT
Astronomical Twilight 4:54 AM MDT 10:05 PM MDT
Moon 8:59 PM MDT (8/22) 8:39 AM MDT (8/22)
Length of Visible Light 14h 39m
Length of Day
13h 38m
Waning Gibbous, 96% of the Moon is Illuminated
Aug 22
Waning Gibbous
Aug 28
Last Quarter
Sep 5
New
Sep 12
First Quarter
Sep 19
Full

Hourly Weather History & Observations

Time (MDT) Temp. Dew Point Humidity Pressure Visibility Wind Dir Wind Speed Gust Speed Precip Events Conditions
12:53 AM 63.0 °F 52.0 °F 67% 30.01 in 10.0 mi North 3.5 mph - N/A   Clear
1:53 AM 55.9 °F 50.0 °F 80% 30.03 in 10.0 mi NNW 3.5 mph - N/A   Clear
2:53 AM 55.0 °F 48.9 °F 80% 30.04 in 10.0 mi NNW 6.9 mph - N/A   Clear
3:53 AM 55.9 °F 48.9 °F 77% 30.05 in 10.0 mi ESE 3.5 mph - N/A   Clear
4:53 AM 60.1 °F 50.0 °F 69% 30.05 in 10.0 mi ESE 3.5 mph - N/A   Clear
5:53 AM 55.9 °F 50.0 °F 80% 30.06 in 10.0 mi Calm Calm - N/A   Clear
6:53 AM 53.1 °F 48.9 °F 86% 30.07 in 10.0 mi West 3.5 mph - N/A   Clear
7:53 AM 61.0 °F 51.1 °F 70% 30.06 in 10.0 mi Calm Calm - N/A   Partly Cloudy
8:53 AM 66.0 °F 52.0 °F 60% 30.07 in 10.0 mi NNE 3.5 mph - N/A   Clear
9:53 AM 68.0 °F 53.1 °F 59% 30.06 in 10.0 mi NW 3.5 mph - N/A   Partly Cloudy
10:53 AM 77.0 °F 51.1 °F 40% 30.05 in 10.0 mi South 3.5 mph - N/A   Clear
11:53 AM 80.1 °F 50.0 °F 35% 30.04 in 10.0 mi Variable 3.5 mph - N/A   Clear
12:53 PM 84.0 °F 48.9 °F 29% 30.01 in 10.0 mi SSW 8.1 mph - N/A   Scattered Clouds
1:53 PM 87.1 °F 45.0 °F 23% 30.00 in 9.0 mi SSW 17.3 mph 20.7 mph N/A   Scattered Clouds
2:53 PM 88.0 °F 46.0 °F 23% 29.97 in 10.0 mi South 12.7 mph 17.3 mph N/A   Scattered Clouds
3:53 PM 88.0 °F 46.0 °F 23% 29.94 in 10.0 mi West 6.9 mph - N/A   Scattered Clouds
4:53 PM 89.1 °F 44.1 °F 21% 29.89 in 10.0 mi SSW 8.1 mph - N/A   Scattered Clouds
5:53 PM 89.1 °F 46.0 °F 22% 29.87 in 10.0 mi SSW 10.4 mph - N/A   Clear
6:53 PM 89.1 °F 45.0 °F 22% 29.86 in 10.0 mi South 8.1 mph - N/A   Scattered Clouds
7:53 PM 84.9 °F 46.0 °F 26% 29.84 in 10.0 mi South 5.8 mph - N/A   Clear
8:53 PM 82.9 °F 48.0 °F 29% 29.86 in 10.0 mi South 4.6 mph - N/A   Clear
9:18 PM 73.4 °F 48.2 °F 41% 30.03 in 6.0 mi SW 15.0 mph 26.5 mph 0.00 in Rain , Thunderstorm Light Rain
9:53 PM 68.0 °F 53.1 °F 59% 29.92 in 8.0 mi West 12.7 mph - 0.01 in Rain , Thunderstorm Light Thunderstorms and Rain
10:34 PM 68.0 °F 51.8 °F 56% 30.07 in 10.0 mi WNW 19.6 mph - 0.01 in   Mostly Cloudy
10:53 PM 69.1 °F 50.0 °F 51% 29.90 in 10.0 mi NNW 12.7 mph - 0.01 in   Partly Cloudy
11:53 PM 69.1 °F 51.1 °F 53% 29.89 in 10.0 mi Calm Calm - N/A   Clear